Location: Burtsch�tz
(51.0528°N, 12.1764°E)
Time: 06:47:14
(UTC+00:00)

ERBS - Pass Details

Date: 29 October 2020
Orbit: 406 x 422 km, 57.0° (Epoch: 01 December)

Event Time Altitude Azimuth Distance (km) Brightness Sun altitude
Rises 18:17:48 0° 299° (WNW) 2,374 7.2 -23.7°
Reaches altitude 10° 18:19:57 10° 306° (NW) 1,511 5.9 -24.0°
Enters shadow 18:21:53 29° 325° (NW) 813 4.0 -24.3°
